252P/LINEAR (2000)

Japanese version
Home page
Updated on July 21, 2011

---------------------------------------------------------------------

* Profile

Designation 252P/2000 G1
Discovery Date April 7, 2000
Magnitude 17.9 mag
Discoverer Lincoln Laboratory Near-Earth Asteroid Research project

* Orbital Elements

Epoch 2000 Feb. 26.0 TT = JDT 2451600.5
T 2000 Mar.  9.81037 TT                                 MPC
q   1.0028965            (2000.0)            P               Q
n   0.18404997     Peri.  343.28806     -0.99419229     -0.10195183
a   3.0608747      Node   191.03289     +0.10715442     -0.96748257
e   0.6723497      Incl.   10.37376     -0.00998057     -0.23148068
P   5.36
From 146 observations 2000 Apr. 7-2011 June 10, mean residual 0".71.

* Finding Charts

* Magnitudes Graph

        m1 = 17.0 + 5 log d + 10.0 log r

---------------------------------------------------------------------

The orbital elements are published on M.P.E.C. 2011-L41.
The charts are made with StellaNavigator Ver.2.0 for Windows (AstroArts / ASCII).
The magnitudes graphs are made with Comet for Windows.

---------------------------------------------------------------------

Copyright(C) Seiichi Yoshida (comet@aerith.net). All rights reserved.